Regional Weather Roundup
Issued by NWS

Home | Current Version | Previous Version | Text Only | Print | Product List | Glossary Off
Versions: 1 2 3 4 5 6 7 8 9 10 11 12 13 14 15 16 17 18 19 20 21 22 23 24 25 26 27 28 29 30 31 32 33 34 35 36 37 38 39 40 41 42 43 44 45 46 47 48 49 50

436
ASUS43 KLMK 251502
RWRKY
KENTUCKY REGIONAL WEATHER ROUNDUP
NATIONAL WEATHER SERVICE LOUISVILLE KY
1100 AM EDT THU AUG 25 2016

NOTE "FAIR" INDICATES FEW OR NO CLOUDS BELOW 12,000 FEET
WITH NO SIGNIFICANT WEATHER AND/OR OBSTRUCTIONS TO VISIBILITY.

KYZ001>023-026-027-061>063-070>075-251600-
WESTERN AND SOUTH CENTRAL KENTUCKY

CITY           SKY/WX    TMP DP  RH WIND       PRES   REMARKS
PADUCAH        SUNNY     86  75  69 W7        30.11R HX  95
HENDERSON      SUNNY     88  72  58 SW7       30.08F HX  94
OWENSBORO      SUNNY     87  76  69 W9        30.11F HX  97
HOPKINSVILLE   SUNNY     86  76  70 SW6       30.14S HX  96
BOWLING GREEN  SUNNY     87  74  64 SW5       30.14F HX  95
GLASGOW        SUNNY     83  74  72 SW5       30.16S HX  90
$$

KYZ024-025-028>034-038-045-046-053-251600-
NORTH CENTRAL KENTUCKY

CITY           SKY/WX    TMP DP  RH WIND       PRES   REMARKS
LOUISVILLE/SDF MOSUNNY   87  73  62 SW10      30.10S HX  94
LOUISVILLE/LOU SUNNY     86  73  65 W9        30.11S HX  93
FORT KNOX      SUNNY     86  75  69 SW9       30.11S HX  96
$$

KYZ035>037-039>044-047>052-055>060-089>105-251600-
NORTHEAST KENTUCKY

CITY           SKY/WX    TMP DP  RH WIND       PRES   REMARKS
LEXINGTON      SUNNY     84  74  71 SW9       30.14S HX  91
COVINGTON      CLOUDY    82  76  81 W9        30.10S
FRANKFORT      SUNNY     85  73  67 SW9       30.11S HX  91
$$

KYZ054-064>069-076>088-106>120-251600-
SOUTHEAST KENTUCKY

CITY           SKY/WX    TMP DP  RH WIND       PRES   REMARKS
JACKSON        CLOUDY    81  73  76 CALM      30.19S
LONDON         MOSUNNY   81  70  69 W6        30.20R
SOMERSET       PTSUNNY   81  72  74 W9        30.20R
MIDDLESBORO    PTSUNNY   83  73  72 SE5       30.21S
MONTICELLO     MOSUNNY  N/A N/A N/A NW10G21   30.20S HAZE
$$





USA.gov is the U.S. government's official web portal to all federal, state and local government web resources and services.